"Sample Date","Sample Time","Sample Value","Units","Flow Rate","Sample Interval","Number Channels","Micron Size 0","Counts/Channel 0","Micron Size 1","Counts/Channel 1","Micron Size 2","Counts/Channel 2","Micron Size 3","Counts/Channel 3","Micron Size 4","Counts/Channel 4","Micron Size 5","Counts/Channel 5","Micron Size 6","Counts/Channel 6","Micron Size 7","Counts/Channel 7","Micron Size 8","Counts/Channel 8","Micron Size 9","Counts/Channel 9","Micron Size 10","Counts/Channel 10","Micron Size 11","Counts/Channel 11","Micron Size 12","Counts/Channel 12","Micron Size 13","Counts/Channel 13","Micron Size 14","Counts/Channel 14","Micron Size 15","Counts/Channel 15","Micron Size 16","Counts/Channel 16","Micron Size 17","Counts/Channel 17","Micron Size 18","Counts/Channel 18","Micron Size 19","Counts/Channel 19","Micron Size 20","Counts/Channel 20","Micron Size 21","Counts/Channel 21","Micron Size 22","Counts/Channel 22","Micron Size 23","Counts/Channel 23","Micron Size 24","Counts/Channel 24","Micron Size 25","Counts/Channel 25","Micron Size 26","Counts/Channel 26","Micron Size 27","Counts/Channel 27","Micron Size 28","Counts/Channel 28","Micron Size 29","Counts/Channel 29","Micron Size 30","Counts/Channel 30","Micron Size 31","Counts/Channel 31"
"03/06/08","16:00:02",38126.000,"cc",28365.869,6.00,6,0.100,35026.000,0.200,2617.000,0.300,400.000,0.500,80.000,1.000,3.000,5.000,0
"03/06/08","16:00:08",38361.000,"cc",28310.063,6.00,6,0.100,35122.000,0.200,2739.000,0.300,412.000,0.500,85.000,1.000,3.000,5.000,0
"03/06/08","16:00:14",38152.000,"cc",28304.535,6.00,6,0.100,35000.000,0.200,2616.000,0.300,446.000,0.500,88.000,1.000,2.000,5.000,0
"03/06/08","16:00:20",38462.000,"cc",28353.348,6.00,6,0.100,35197.000,0.200,2764.000,0.300,408.000,0.500,91.000,1.000,2.000,5.000,0
"03/06/08","16:00:26",38233.000,"cc",28279.590,6.00,6,0.100,34941.000,0.200,2782.000,0.300,408.000,0.500,97.000,1.000,5.000,5.000,0
"03/06/08","16:00:32",38636.000,"cc",28278.848,6.00,6,0.100,35177.000,0.200,2964.000,0.300,412.000,0.500,81.000,1.000,2.000,5.000,0
"03/06/08","16:00:38",38814.000,"cc",28341.514,6.00,6,0.100,35413.000,0.200,2857.000,0.300,429.000,0.500,114.000,1.000,1.000,5.000,0
"03/06/08","16:00:44",38235.000,"cc",28273.666,6.00,6,0.100,35018.000,0.200,2679.000,0.300,448.000,0.500,87.000,1.000,3.000,5.000,0
"03/06/08","16:00:50",38110.000,"cc",28336.678,6.00,6,0.100,34950.000,0.200,2712.000,0.300,352.000,0.500,94.000,1.000,2.000,5.000,0
"03/06/08","16:00:56",38427.000,"cc",28376.707,6.00,6,0.100,35245.000,0.200,2702.000,0.300,397.000,0.500,81.000,1.000,2.000,5.000,0
"03/06/08","16:01:02",38074.000,"cc",28324.764,6.00,6,0.100,35032.000,0.200,2661.000,0.300,316.000,0.500,65.000,1.000,0,5.000,0
"03/06/08","16:01:08",38740.000,"cc",28302.012,6.00,6,0.100,35416.000,0.200,2820.000,0.300,409.000,0.500,92.000,1.000,3.000,5.000,0
"03/06/08","16:01:14",38688.000,"cc",28298.648,6.00,6,0.100,35266.000,0.200,2846.000,0.300,453.000,0.500,116.000,1.000,7.000,5.000,0
"03/06/08","16:01:20",39052.000,"cc",28282.191,6.00,6,0.100,35555.000,0.200,2886.000,0.300,467.000,0.500,138.000,1.000,6.000,5.000,0
"03/06/08","16:01:26",38515.000,"cc",28323.707,6.00,6,0.100,35268.000,0.200,2747.000,0.300,421.000,0.500,78.000,1.000,1.000,5.000,0
"03/06/08","16:01:32",38296.000,"cc",28402.240,6.00,6,0.100,35120.000,0.200,2716.000,0.300,377.000,0.500,79.000,1.000,4.000,5.000,0
"03/06/08","16:01:38",38427.000,"cc",28342.611,6.00,6,0.100,35171.000,0.200,2744.000,0.300,410.000,0.500,98.000,1.000,4.000,5.000,0
"03/06/08","16:01:44",38174.000,"cc",28305.994,6.00,6,0.100,35012.000,0.200,2724.000,0.300,363.000,0.500,71.000,1.000,4.000,5.000,0
"03/06/08","16:01:50",38158.000,"cc",28268.746,6.00,6,0.100,34933.000,0.200,2714.000,0.300,425.000,0.500,84.000,1.000,2.000,5.000,0
"03/06/08","16:01:56",38341.000,"cc",28288.748,6.00,6,0.100,35029.000,0.200,2776.000,0.300,433.000,0.500,101.000,1.000,2.000,5.000,0
"03/06/08","16:02:02",38379.000,"cc",28320.408,6.00,6,0.100,35175.000,0.200,2664.000,0.300,427.000,0.500,107.000,1.000,6.000,5.000,0
"03/06/08","16:02:08",38389.000,"cc",28322.734,6.00,6,0.100,35083.000,0.200,2774.000,0.300,439.000,0.500,88.000,1.000,5.000,5.000,0
"03/06/08","16:02:14",38523.000,"cc",28284.004,6.00,6,0.100,35168.000,0.200,2815.000,0.300,451.000,0.500,85.000,1.000,4.000,5.000,0
"03/06/08","16:02:20",37929.000,"cc",28301.041,6.00,6,0.100,34820.000,0.200,2666.000,0.300,355.000,0.500,85.000,1.000,3.000,5.000,0
"03/06/08","16:02:26",38780.000,"cc",28319.166,6.00,6,0.100,35373.000,0.200,2828.000,0.300,469.000,0.500,106.000,1.000,4.000,5.000,0
"03/06/08","16:02:32",37810.000,"cc",28326.832,6.00,6,0.100,34596.000,0.200,2737.000,0.300,384.000,0.500,93.000,1.000,0,5.000,0
"03/06/08","16:02:38",37808.000,"cc",28357.172,6.00,6,0.100,34571.000,0.200,2724.000,0.300,409.000,0.500,99.000,1.000,5.000,5.000,0
"03/06/08","16:02:44",38327.000,"cc",28311.893,6.00,6,0.100,34917.000,0.200,2796.000,0.300,467.000,0.500,144.000,1.000,3.000,5.000,0
"03/06/08","16:02:50",38166.000,"cc",28385.318,6.00,6,0.100,35009.000,0.200,2677.000,0.300,386.000,0.500,90.000,1.000,4.000,5.000,0
"03/06/08","16:02:56",38330.000,"cc",28324.053,6.00,6,0.100,35165.000,0.200,2691.000,0.300,395.000,0.500,77.000,1.000,2.000,5.000,0
"03/06/08","16:03:02",38575.000,"cc",28249.984,6.00,6,0.100,35248.000,0.200,2815.000,0.300,408.000,0.500,104.000,1.000,0,5.000,0
"03/06/08","16:03:08",38188.000,"cc",28304.176,6.00,6,0.100,34912.000,0.200,2766.000,0.300,435.000,0.500,74.000,1.000,1.000,5.000,0
"03/06/08","16:03:14",38279.000,"cc",28297.461,6.00,6,0.100,35063.000,0.200,2697.000,0.300,403.000,0.500,108.000,1.000,8.000,5.000,0
"03/06/08","16:03:20",37761.000,"cc",28304.490,6.00,6,0.100,34610.000,0.200,2701.000,0.300,380.000,0.500,68.000,1.000,2.000,5.000,0
"03/06/08","16:03:26",38627.000,"cc",28318.023,6.00,6,0.100,35377.000,0.200,2715.000,0.300,430.000,0.500,100.000,1.000,5.000,5.000,0
"03/06/08","16:03:32",38319.000,"cc",28332.272,6.00,6,0.100,34984.000,0.200,2814.000,0.300,409.000,0.500,102.000,1.000,10.000,5.000,0
"03/06/08","16:03:38",37840.000,"cc",28341.063,6.00,6,0.100,34639.000,0.200,2756.000,0.300,376.000,0.500,66.000,1.000,3.000,5.000,0
"03/06/08","16:03:44",37959.000,"cc",28322.154,6.00,6,0.100,34893.000,0.200,2553.000,0.300,432.000,0.500,75.000,1.000,6.000,5.000,0
"03/06/08","16:03:50",38043.000,"cc",28313.848,6.00,6,0.100,34789.000,0.200,2752.000,0.300,415.000,0.500,83.000,1.000,4.000,5.000,0
"03/06/08","16:03:56",38474.000,"cc",28351.537,6.00,6,0.100,35132.000,0.200,2767.000,0.300,455.000,0.500,114.000,1.000,6.000,5.000,0
"03/06/08","16:04:02",37873.000,"cc",28318.758,6.00,6,0.100,34798.000,0.200,2617.000,0.300,385.000,0.500,68.000,1.000,5.000,5.000,0
"03/06/08","16:04:08",37525.000,"cc",28273.512,6.00,6,0.100,34429.000,0.200,2628.000,0.300,367.000,0.500,93.000,1.000,8.000,5.000,0
"03/06/08","16:04:14",37738.000,"cc",28361.127,6.00,6,0.100,34721.000,0.200,2554.000,0.300,387.000,0.500,76.000,1.000,0,5.000,0
"03/06/08","16:04:20",37447.000,"cc",28266.824,6.00,6,0.100,34383.000,0.200,2573.000,0.300,402.000,0.500,86.000,1.000,3.000,5.000,0
"03/06/08","16:04:26",37516.000,"cc",28284.340,6.00,6,0.100,34460.000,0.200,2546.000,0.300,415.000,0.500,92.000,1.000,3.000,5.000,0
"03/06/08","16:04:32",37614.000,"cc",28335.180,6.00,6,0.100,34431.000,0.200,2580.000,0.300,459.000,0.500,138.000,1.000,6.000,5.000,0
"03/06/08","16:04:38",37779.000,"cc",28334.150,6.00,6,0.100,34495.000,0.200,2690.000,0.300,468.000,0.500,123.000,1.000,3.000,5.000,0
"03/06/08","16:04:44",37115.000,"cc",28293.287,6.00,6,0.100,34040.000,0.200,2594.000,0.300,398.000,0.500,79.000,1.000,4.000,5.000,0
"03/06/08","16:04:50",37868.000,"cc",28322.383,6.00,6,0.100,34695.000,0.200,2627.000,0.300,431.000,0.500,109.000,1.000,6.000,5.000,0
"03/06/08","16:04:56",37713.000,"cc",28319.635,6.00,6,0.100,34494.000,0.200,2609.000,0.300,461.000,0.500,139.000,1.000,10.000,5.000,0
"03/06/08","16:05:02",37467.000,"cc",28252.758,6.00,6,0.100,34279.000,0.200,2573.000,0.300,463.000,0.500,143.000,1.000,9.000,5.000,0
"03/06/08","16:05:08",37028.000,"cc",28245.016,6.00,6,0.100,33892.000,0.200,2486.000,0.300,485.000,0.500,148.000,1.000,17.000,5.000,0
"03/06/08","16:05:14",37515.000,"cc",28275.768,6.00,6,0.100,34328.000,0.200,2574.000,0.300,447.000,0.500,159.000,1.000,7.000,5.000,0
"03/06/08","16:05:20",37932.000,"cc",28387.613,6.00,6,0.100,34710.000,0.200,2597.000,0.300,483.000,0.500,134.000,1.000,8.000,5.000,0
"03/06/08","16:05:26",37391.000,"cc",28398.574,6.00,6,0.100,34248.000,0.200,2590.000,0.300,436.000,0.500,113.000,1.000,4.000,5.000,0
"03/06/08","16:05:32",37194.000,"cc",28341.902,6.00,6,0.100,34065.000,0.200,2542.000,0.300,439.000,0.500,141.000,1.000,7.000,5.000,0
"03/06/08","16:05:38",37585.000,"cc",28212.387,6.00,6,0.100,34250.000,0.200,2592.000,0.300,551.000,0.500,178.000,1.000,14.000,5.000,0
"03/06/08","16:05:44",37243.000,"cc",28228.629,6.00,6,0.100,33947.000,0.200,2618.000,0.300,484.000,0.500,179.000,1.000,15.000,5.000,0
"03/06/08","16:05:50",37367.000,"cc",28366.934,6.00,6,0.100,34244.000,0.200,2514.000,0.300,453.000,0.500,147.000,1.000,9.000,5.000,0
"03/06/08","16:05:56",37459.000,"cc",28437.035,6.00,6,0.100,34173.000,0.200,2613.000,0.300,502.000,0.500,164.000,1.000,7.000,5.000,0
"03/06/08","16:06:02",36960.000,"cc",28335.570,6.00,6,0.100,33878.000,0.200,2510.000,0.300,411.000,0.500,151.000,1.000,10.000,5.000,0
"03/06/08","16:06:08",37538.000,"cc",28219.711,6.00,6,0.100,34343.000,0.200,2601.000,0.300,449.000,0.500,140.000,1.000,5.000,5.000,0
"03/06/08","16:06:14",37663.000,"cc",28268.922,6.00,6,0.100,34391.000,0.200,2658.000,0.300,474.000,0.500,130.000,1.000,10.000,5.000,0
"03/06/08","16:06:20",37420.000,"cc",28425.309,6.00,6,0.100,34275.000,0.200,2581.000,0.300,432.000,0.500,127.000,1.000,5.000,5.000,0
"03/06/08","16:06:26",37187.000,"cc",28301.764,6.00,6,0.100,33843.000,0.200,2625.000,0.300,521.000,0.500,188.000,1.000,10.000,5.000,0
"03/06/08","16:06:32",37348.000,"cc",28290.113,6.00,6,0.100,34099.000,0.200,2613.000,0.300,482.000,0.500,146.000,1.000,8.000,5.000,0
"03/06/08","16:06:38",37367.000,"cc",28328.690,6.00,6,0.100,34327.000,0.200,2480.000,0.300,445.000,0.500,115.000,1.000,0,5.000,0
"03/06/08","16:06:44",37171.000,"cc",28249.926,6.00,6,0.100,33886.000,0.200,2623.000,0.300,529.000,0.500,127.000,1.000,6.000,5.000,0
"03/06/08","16:06:50",37130.000,"cc",28237.426,6.00,6,0.100,34027.000,0.200,2547.000,0.300,413.000,0.500,133.000,1.000,10.000,5.000,0
"03/06/08","16:06:56",37165.000,"cc",28324.955,6.00,6,0.100,33978.000,0.200,2538.000,0.300,484.000,0.500,154.000,1.000,11.000,5.000,0
"03/06/08","16:07:02",37806.000,"cc",28350.191,6.00,6,0.100,34441.000,0.200,2678.000,0.300,507.000,0.500,173.000,1.000,7.000,5.000,0
"03/06/08","16:07:08",37560.000,"cc",28338.473,6.00,6,0.100,34262.000,0.200,2641.000,0.300,499.000,0.500,148.000,1.000,10.000,5.000,0
"03/06/08","16:07:14",37628.000,"cc",28300.084,6.00,6,0.100,34429.000,0.200,2623.000,0.300,450.000,0.500,116.000,1.000,10.000,5.000,0
"03/06/08","16:07:20",37774.000,"cc",28313.590,6.00,6,0.100,34409.000,0.200,2761.000,0.300,467.000,0.500,132.000,1.000,5.000,5.000,0
"03/06/08","16:07:26",37741.000,"cc",28271.729,6.00,6,0.100,34278.000,0.200,2715.000,0.300,544.000,0.500,185.000,1.000,19.000,5.000,0
"03/06/08","16:07:32",37716.000,"cc",28307.523,6.00,6,0.100,34431.000,0.200,2656.000,0.300,458.000,0.500,164.000,1.000,7.000,5.000,0
"03/06/08","16:07:38",37790.000,"cc",28338.565,6.00,6,0.100,34554.000,0.200,2646.000,0.300,472.000,0.500,115.000,1.000,3.000,5.000,0
"03/06/08","16:07:44",37613.000,"cc",28314.053,6.00,6,0.100,34402.000,0.200,2595.000,0.300,456.000,0.500,151.000,1.000,9.000,5.000,0
"03/06/08","16:07:50",37798.000,"cc",28342.647,6.00,6,0.100,34486.000,0.200,2637.000,0.300,509.000,0.500,157.000,1.000,9.000,5.000,0
"03/06/08","16:07:56",37771.000,"cc",28299.486,6.00,6,0.100,34484.000,0.200,2611.000,0.300,521.000,0.500,147.000,1.000,8.000,5.000,0
"03/06/08","16:08:02",37277.000,"cc",28285.066,6.00,6,0.100,34160.000,0.200,2554.000,0.300,410.000,0.500,143.000,1.000,10.000,5.000,0
"03/06/08","16:08:08",37701.000,"cc",28297.652,6.00,6,0.100,34367.000,0.200,2664.000,0.300,480.000,0.500,180.000,1.000,10.000,5.000,0
"03/06/08","16:08:14",37983.000,"cc",28301.891,6.00,6,0.100,34698.000,0.200,2611.000,0.300,481.000,0.500,179.000,1.000,14.000,5.000,0
"03/06/08","16:08:20",37860.000,"cc",28379.920,6.00,6,0.100,34463.000,0.200,2663.000,0.300,542.000,0.500,182.000,1.000,10.000,5.000,0
"03/06/08","16:08:26",37636.000,"cc",28258.436,6.00,6,0.100,34397.000,0.200,2584.000,0.300,489.000,0.500,155.000,1.000,11.000,5.000,0
"03/06/08","16:08:32",37583.000,"cc",28363.715,6.00,6,0.100,34220.000,0.200,2682.000,0.300,534.000,0.500,140.000,1.000,7.000,5.000,0
"03/06/08","16:08:38",37637.000,"cc",28336.365,6.00,6,0.100,34413.000,0.200,2589.000,0.300,492.000,0.500,134.000,1.000,9.000,5.000,0
"03/06/08","16:08:44",37739.000,"cc",28365.092,6.00,6,0.100,34633.000,0.200,2557.000,0.300,457.000,0.500,88.000,1.000,4.000,5.000,0
"03/06/08","16:08:50",37709.000,"cc",28273.715,6.00,6,0.100,34627.000,0.200,2523.000,0.300,432.000,0.500,114.000,1.000,13.000,5.000,0
"03/06/08","16:08:56",37768.000,"cc",28353.070,6.00,6,0.100,34586.000,0.200,2634.000,0.300,460.000,0.500,85.000,1.000,3.000,5.000,0
"03/06/08","16:09:02",37787.000,"cc",28242.262,6.00,6,0.100,34683.000,0.200,2547.000,0.300,437.000,0.500,114.000,1.000,6.000,5.000,0
"03/06/08","16:09:08",37841.000,"cc",28319.607,6.00,6,0.100,34560.000,0.200,2630.000,0.300,504.000,0.500,138.000,1.000,9.000,5.000,0
"03/06/08","16:09:14",38132.000,"cc",28366.930,6.00,6,0.100,34831.000,0.200,2699.000,0.300,462.000,0.500,131.000,1.000,9.000,5.000,0
"03/06/08","16:09:20",37858.000,"cc",28329.580,6.00,6,0.100,34529.000,0.200,2710.000,0.300,464.000,0.500,148.000,1.000,7.000,5.000,0
"03/06/08","16:09:26",37989.000,"cc",28328.570,6.00,6,0.100,34728.000,0.200,2673.000,0.300,451.000,0.500,134.000,1.000,3.000,5.000,0
"03/06/08","16:09:32",38449.000,"cc",28315.488,6.00,6,0.100,35124.000,0.200,2671.000,0.300,502.000,0.500,147.000,1.000,5.000,5.000,0
"03/06/08","16:09:38",38090.000,"cc",28311.611,6.00,6,0.100,34697.000,0.200,2744.000,0.300,494.000,0.500,148.000,1.000,7.000,5.000,0
"03/06/08","16:09:44",38082.000,"cc",28336.377,6.00,6,0.100,34781.000,0.200,2667.000,0.300,493.000,0.500,135.000,1.000,6.000,5.000,0
"03/06/08","16:09:50",38053.000,"cc",28310.504,6.00,6,0.100,34799.000,0.200,2641.000,0.300,472.000,0.500,131.000,1.000,10.000,5.000,0
"03/06/08","16:09:56",37895.000,"cc",28280.834,6.00,6,0.100,34578.000,0.200,2708.000,0.300,474.000,0.500,128.000,1.000,7.000,5.000,0
"03/06/08","16:10:02",38120.000,"cc",28328.885,6.00,6,0.100,34741.000,0.200,2679.000,0.300,534.000,0.500,158.000,1.000,8.000,5.000,0
"03/06/08","16:10:08",38180.000,"cc",28390.406,6.00,6,0.100,35024.000,0.200,2609.000,0.300,426.000,0.500,116.000,1.000,5.000,5.000,0
"03/06/08","16:10:14",37986.000,"cc",28273.260,6.00,6,0.100,34681.000,0.200,2653.000,0.300,498.000,0.500,146.000,1.000,8.000,5.000,0
"03/06/08","16:10:20",38254.000,"cc",28328.959,6.00,6,0.100,34861.000,0.200,2735.000,0.300,487.000,0.500,164.000,1.000,7.000,5.000,0
"03/06/08","16:10:26",37610.000,"cc",28307.773,6.00,6,0.100,34326.000,0.200,2646.000,0.300,476.000,0.500,151.000,1.000,11.000,5.000,0
"03/06/08","16:10:32",37577.000,"cc",28360.613,6.00,6,0.100,34392.000,0.200,2647.000,0.300,422.000,0.500,109.000,1.000,7.000,5.000,0
"03/06/08","16:10:38",37904.000,"cc",28266.375,6.00,6,0.100,34522.000,0.200,2783.000,0.300,450.000,0.500,139.000,1.000,10.000,5.000,0
"03/06/08","16:10:44",37953.000,"cc",28312.807,6.00,6,0.100,34751.000,0.200,2574.000,0.300,500.000,0.500,123.000,1.000,5.000,5.000,0
"03/06/08","16:10:50",38384.000,"cc",28360.346,6.00,6,0.100,35035.000,0.200,2724.000,0.300,472.000,0.500,145.000,1.000,8.000,5.000,0
"03/06/08","16:10:56",38190.000,"cc",28281.469,6.00,6,0.100,34935.000,0.200,2672.000,0.300,431.000,0.500,147.000,1.000,5.000,5.000,0
"03/06/08","16:11:02",38104.000,"cc",28259.275,6.00,6,0.100,34638.000,0.200,2774.000,0.300,507.000,0.500,171.000,1.000,14.000,5.000,0
"03/06/08","16:11:08",38026.000,"cc",28396.971,6.00,6,0.100,34798.000,0.200,2628.000,0.300,446.000,0.500,143.000,1.000,11.000,5.000,0
"03/06/08","16:11:14",38333.000,"cc",28328.047,6.00,6,0.100,34996.000,0.200,2677.000,0.300,493.000,0.500,157.000,1.000,10.000,5.000,0
"03/06/08","16:11:20",38402.000,"cc",28357.461,6.00,6,0.100,34920.000,0.200,2832.000,0.300,495.000,0.500,145.000,1.000,10.000,5.000,0
"03/06/08","16:11:26",38119.000,"cc",28326.723,6.00,6,0.100,34844.000,0.200,2690.000,0.300,448.000,0.500,128.000,1.000,9.000,5.000,0
"03/06/08","16:11:32",38323.000,"cc",28322.168,6.00,6,0.100,35089.000,0.200,2675.000,0.300,441.000,0.500,114.000,1.000,4.000,5.000,0
"03/06/08","16:11:38",37864.000,"cc",28288.633,6.00,6,0.100,34594.000,0.200,2753.000,0.300,410.000,0.500,100.000,1.000,7.000,5.000,0
"03/06/08","16:11:44",38285.000,"cc",28275.375,6.00,6,0.100,34975.000,0.200,2734.000,0.300,473.000,0.500,98.000,1.000,5.000,5.000,0
"03/06/08","16:11:50",38556.000,"cc",28351.432,6.00,6,0.100,35352.000,0.200,2677.000,0.300,413.000,0.500,110.000,1.000,4.000,5.000,0
"03/06/08","16:11:56",38131.000,"cc",28380.137,6.00,6,0.100,35063.000,0.200,2597.000,0.300,388.000,0.500,81.000,1.000,2.000,5.000,0
"03/06/08","16:12:02",38048.000,"cc",28234.701,6.00,6,0.100,34990.000,0.200,2533.000,0.300,441.000,0.500,82.000,1.000,2.000,5.000,0
"03/06/08","16:12:08",38112.000,"cc",28272.818,6.00,6,0.100,34957.000,0.200,2600.000,0.300,445.000,0.500,104.000,1.000,6.000,5.000,0
"03/06/08","16:12:14",38487.000,"cc",28337.031,6.00,6,0.100,35034.000,0.200,2787.000,0.300,497.000,0.500,157.000,1.000,12.000,5.000,0
"03/06/08","16:12:20",38261.000,"cc",28372.840,6.00,6,0.100,35042.000,0.200,2676.000,0.300,427.000,0.500,108.000,1.000,8.000,5.000,0
"03/06/08","16:12:26",38083.000,"cc",28333.357,6.00,6,0.100,34943.000,0.200,2585.000,0.300,428.000,0.500,121.000,1.000,6.000,5.000,0
"03/06/08","16:12:32",37987.000,"cc",28311.227,6.00,6,0.100,34653.000,0.200,2769.000,0.300,455.000,0.500,104.000,1.000,6.000,5.000,0
"03/06/08","16:12:38",38504.000,"cc",28307.635,6.00,6,0.100,35297.000,0.200,2680.000,0.300,434.000,0.500,90.000,1.000,3.000,5.000,0
"03/06/08","16:12:44",37758.000,"cc",28309.912,6.00,6,0.100,34663.000,0.200,2593.000,0.300,402.000,0.500,94.000,1.000,6.000,5.000,0
"03/06/08","16:12:50",38257.000,"cc",28305.025,6.00,6,0.100,35058.000,0.200,2669.000,0.300,427.000,0.500,100.000,1.000,3.000,5.000,0
"03/06/08","16:12:56",38250.000,"cc",28333.150,6.00,6,0.100,35070.000,0.200,2687.000,0.300,417.000,0.500,70.000,1.000,6.000,5.000,0
"03/06/08","16:13:02",37919.000,"cc",28245.897,6.00,6,0.100,34730.000,0.200,2667.000,0.300,434.000,0.500,84.000,1.000,4.000,5.000,0
"03/06/08","16:13:08",38146.000,"cc",28266.941,6.00,6,0.100,34965.000,0.200,2583.000,0.300,456.000,0.500,138.000,1.000,4.000,5.000,0
"03/06/08","16:13:14",38475.000,"cc",28412.662,6.00,6,0.100,35184.000,0.200,2711.000,0.300,457.000,0.500,114.000,1.000,9.000,5.000,0
"03/06/08","16:13:20",37948.000,"cc",28360.387,6.00,6,0.100,35023.000,0.200,2484.000,0.300,376.000,0.500,64.000,1.000,1.000,5.000,0
"03/06/08","16:13:26",37415.000,"cc",28317.066,6.00,6,0.100,34356.000,0.200,2567.000,0.300,401.000,0.500,90.000,1.000,1.000,5.000,0
"03/06/08","16:13:32",37903.000,"cc",28327.822,6.00,6,0.100,34757.000,0.200,2603.000,0.300,429.000,0.500,108.000,1.000,6.000,5.000,0
"03/06/08","16:13:38",38218.000,"cc",28236.824,6.00,6,0.100,34979.000,0.200,2608.000,0.300,487.000,0.500,138.000,1.000,6.000,5.000,0
"03/06/08","16:13:44",38164.000,"cc",28356.434,6.00,6,0.100,34934.000,0.200,2614.000,0.300,498.000,0.500,111.000,1.000,7.000,5.000,0
"03/06/08","16:13:50",37992.000,"cc",28274.502,6.00,6,0.100,34731.000,0.200,2678.000,0.300,459.000,0.500,119.000,1.000,5.000,5.000,0
"03/06/08","16:13:56",37374.000,"cc",28361.502,6.00,6,0.100,34365.000,0.200,2482.000,0.300,412.000,0.500,110.000,1.000,5.000,5.000,0
"03/06/08","16:14:02",37743.000,"cc",28329.613,6.00,6,0.100,34558.000,0.200,2612.000,0.300,454.000,0.500,114.000,1.000,5.000,5.000,0
"03/06/08","16:14:08",37960.000,"cc",28258.666,6.00,6,0.100,34841.000,0.200,2595.000,0.300,406.000,0.500,115.000,1.000,3.000,5.000,0
"03/06/08","16:14:14",38215.000,"cc",28347.816,6.00,6,0.100,34885.000,0.200,2731.000,0.300,460.000,0.500,132.000,1.000,7.000,5.000,0
"03/06/08","16:14:20",37429.000,"cc",28341.078,6.00,6,0.100,34278.000,0.200,2598.000,0.300,421.000,0.500,125.000,1.000,7.000,5.000,0
"03/06/08","16:14:26",38106.000,"cc",28313.424,6.00,6,0.100,34975.000,0.200,2613.000,0.300,401.000,0.500,114.000,1.000,3.000,5.000,0
"03/06/08","16:14:32",37726.000,"cc",28280.037,6.00,6,0.100,34525.000,0.200,2643.000,0.300,452.000,0.500,101.000,1.000,5.000,5.000,0
"03/06/08","16:14:38",37895.000,"cc",28284.496,6.00,6,0.100,34835.000,0.200,2592.000,0.300,361.000,0.500,101.000,1.000,6.000,5.000,0
"03/06/08","16:14:44",37910.000,"cc",28272.832,6.00,6,0.100,34632.000,0.200,2715.000,0.300,430.000,0.500,121.000,1.000,12.000,5.000,0
"03/06/08","16:14:50",37790.000,"cc",28316.539,6.00,6,0.100,34779.000,0.200,2541.000,0.300,367.000,0.500,96.000,1.000,7.000,5.000,0
"03/06/08","16:14:56",37667.000,"cc",28372.127,6.00,6,0.100,34605.000,0.200,2541.000,0.300,421.000,0.500,96.000,1.000,4.000,5.000,0
"03/06/08","16:15:02",37742.000,"cc",28335.092,6.00,6,0.100,34613.000,0.200,2530.000,0.300,473.000,0.500,122.000,1.000,4.000,5.000,0
"03/06/08","16:15:08",37693.000,"cc",28290.660,6.00,6,0.100,34443.000,0.200,2673.000,0.300,454.000,0.500,114.000,1.000,9.000,5.000,0
"03/06/08","16:15:14",37709.000,"cc",28275.299,6.00,6,0.100,34560.000,0.200,2556.000,0.300,434.000,0.500,153.000,1.000,6.000,5.000,0
"03/06/08","16:15:20",37791.000,"cc",28387.240,6.00,6,0.100,34759.000,0.200,2575.000,0.300,391.000,0.500,60.000,1.000,6.000,5.000,0
"03/06/08","16:15:26",37013.000,"cc",28307.315,6.00,6,0.100,34009.000,0.200,2478.000,0.300,414.000,0.500,107.000,1.000,5.000,5.000,0
"03/06/08","16:15:32",37176.000,"cc",28310.736,6.00,6,0.100,34334.000,0.200,2406.000,0.300,351.000,0.500,80.000,1.000,5.000,5.000,0
"03/06/08","16:15:38",36999.000,"cc",28362.387,6.00,6,0.100,34080.000,0.200,2439.000,0.300,390.000,0.500,86.000,1.000,4.000,5.000,0
"03/06/08","16:15:44",37381.000,"cc",28290.990,6.00,6,0.100,34384.000,0.200,2450.000,0.300,424.000,0.500,119.000,1.000,4.000,5.000,0
"03/06/08","16:15:50",37424.000,"cc",28258.275,6.00,6,0.100,34447.000,0.200,2538.000,0.300,361.000,0.500,72.000,1.000,6.000,5.000,0
"03/06/08","16:15:56",37492.000,"cc",28375.361,6.00,6,0.100,34577.000,0.200,2479.000,0.300,354.000,0.500,76.000,1.000,6.000,5.000,0
"03/06/08","16:16:02",37502.000,"cc",28324.356,6.00,6,0.100,34455.000,0.200,2493.000,0.300,445.000,0.500,108.000,1.000,1.000,5.000,0
"03/06/08","16:16:08",36643.000,"cc",28251.572,6.00,6,0.100,33929.000,0.200,2249.000,0.300,346.000,0.500,113.000,1.000,6.000,5.000,0
"03/06/08","16:16:14",37838.000,"cc",28296.596,6.00,6,0.100,34797.000,0.200,2481.000,0.300,437.000,0.500,110.000,1.000,13.000,5.000,0
"03/06/08","16:16:20",38398.000,"cc",28349.916,6.00,6,0.100,35145.000,0.200,2628.000,0.300,454.000,0.500,165.000,1.000,6.000,5.000,0
"03/06/08","16:16:26",38319.000,"cc",28306.686,6.00,6,0.100,35036.000,0.200,2680.000,0.300,451.000,0.500,139.000,1.000,13.000,5.000,0
"03/06/08","16:16:32",37932.000,"cc",28343.428,6.00,6,0.100,34750.000,0.200,2587.000,0.300,462.000,0.500,123.000,1.000,10.000,5.000,0
"03/06/08","16:16:38",37980.000,"cc",28347.959,6.00,6,0.100,34873.000,0.200,2582.000,0.300,401.000,0.500,116.000,1.000,8.000,5.000,0
"03/06/08","16:16:44",37837.000,"cc",28283.473,6.00,6,0.100,34646.000,0.200,2620.000,0.300,467.000,0.500,98.000,1.000,6.000,5.000,0
"03/06/08","16:16:50",38462.000,"cc",28306.012,6.00,6,0.100,35213.000,0.200,2693.000,0.300,447.000,0.500,107.000,1.000,2.000,5.000,0